FOX-1CLIFF (AO-95)

Last updated on Sun Aug 09 2026 00:03:15 GMT+0000 (Coordinated Universal Time)

1 43770U 18099N 26219.96958928 .00006096 00000+0 22742-3 0 9994 2 43770 97.4350 280.0507 0009419 155.1895 204.9799 15.27741540421126
UTC large
Height (km)
Speed (km/s)
/
Latitude / Longitude
Inclination (degrees)
Orbital Period (minutes)
Azimuth
Elevation
Range (km)
Doppler Factor

Next 0 passes for location: London (51.5072 / 0.1276)

No passes found over London.
FOX-1CLIFF (AO-95)